Regional Weather Roundup
Issued by NWS

Home | Current Version | Previous Version | Text Only | Print | Product List | Glossary Off
Versions: 1 2 3 4 5 6 7 8 9 10 11 12 13 14 15 16 17 18 19 20 21 22 23 24 25 26 27

000
ASUS45 KBOU 220007
RWRCO

WEATHER ROUNDUP FOR COLORADO
NATIONAL WEATHER SERVICE DENVER/BOULDER CO
600 PM MDT FRI JUL 21 2017

NOTE: "FAIR" INDICATES FEW OR NO CLOUDS BELOW 12000 FEET WITH NO
SIGNIFICANT WEATHER AND/OR OBSTRUCTIONS TO VISIBILITY.

COZ001>005-013-030-031-220100-
...NORTHWEST COLORADO...

CITY           SKY/WX    TMP DP  RH WIND       PRES   REMARKS
CRAIG          RAIN      62  57  83 S14       30.30S
HAYDEN         CLOUDY    59  52  77 N6        30.32R
MEEKER         PTSUNNY   70  52  52 N21       30.27R
RABBIT EARS PA RAIN      50  50 100 NW7G20    30.57R
STEAMBOAT SPGS CLOUDY    58  52  81 E8        30.33R
WALDEN         CLOUDY    57  50  77 NE9       30.41R
$$

COZ006>008-011-220100-
...WEST CENTRAL VALLEYS...

CITY           SKY/WX    TMP DP  RH WIND       PRES   REMARKS
GRAND JUNCTION TSTM      73  63  70 SE16G23   30.13R
MONTROSE       PTSUNNY   70  58  65 CALM      30.19F
EAGLE          PTSUNNY   81  48  32 E10       30.23S
RIFLE          FAIR      83  49  30 SW14G26   30.11R THUNDER
DELTA          CLOUDY    80  51  36 E6        30.15S
NUCLA          NOT AVBL
$$

COZ017>023-064>068-220100-
...SOUTHWEST COLORADO...

CITY           SKY/WX    TMP DP  RH WIND       PRES   REMARKS
DURANGO        PTSUNNY   74  47  38 E9        30.21R THUNDER
CORTEZ         FAIR      76  58  53 MISG      30.15F
PAGOSA SPRINGS TSTM      62  53  70 SW3G20    30.30R
TELLURIDE      FAIR      64  51  62 CALM      30.42F
WOLF CREEK PAS FAIR      59  43  55 SW8       30.65F
$$

COZ009-010-012-014-032>034-037-058>063-220100-
...CENTRAL COLORADO...

CITY           SKY/WX    TMP DP  RH WIND       PRES   REMARKS
ASPEN          PTSUNNY   74  42  31 E10G22    30.31R
BUENA VISTA    PTSUNNY   70  43  37 N16G22    30.30R
COPPER MTN     CLOUDY    54  43  66 S9        30.67R
BERTHOUD PASS  CLOUDY    45  32  61 W12       30.69F
COTTONWOOD PAS CLOUDY    64  41  42 W15G21    30.45F
GUNNISON       FAIR      66  52  60 S7G16     30.30F
KREMMLING      PTSUNNY   73  54  49 SE3       30.34R
LEADVILLE      LGT RAIN  53  49  86 NE5       30.47S
SALIDA         FAIR      80  42  25 NW14G21   30.32R
SUNLIGHT       CLOUDY    55  50  82 SW3       30.58R THUNDER
WILKERSON PASS CLOUDY    54  41  62 N13G18    30.60F
$$

COZ069>075-220100-
...SAN LUIS VALLEY/SANGRE DE CRISTO MOUNTAINS...

CITY           SKY/WX    TMP DP  RH WIND       PRES   REMARKS
ALAMOSA        LGT RAIN  77  50  38 E15       30.22F
DEL NORTE      FAIR      78  41  26 W9        30.26S
LA VETA PASS   NOT AVBL
SAGUACHE         N/A    N/A N/A N/A MISG        N/A
$$

COZ035-036-038>040-220100-
...NORTHERN COLORADO FRONT RANGE...

CITY           SKY/WX    TMP DP  RH WIND       PRES   REMARKS
DENVER INTL AP PTSUNNY   73  56  54 N20G26    30.14R
DMNS CITY PARK   N/A     77  50  38 NW6G24    30.12S
AURORA         PTSUNNY   76  53  45 N18G28    30.16R
FRONT RANGE AP PTSUNNY   73  57  56 N18G30    30.14R
ERIE MUNI ARPT FAIR      72  56  58 NW8       30.13R
BOULDER MUN AP LGT RAIN  70  54  56 NW12      30.14S
CENTENNIAL     CLOUDY    76  52  43 W7        30.19R
BROOMFIELD     FAIR      73  54  49 NW16      30.15S
FORT COLLINS   CLOUDY    74  56  53 SW15G24   30.12R
LONGMONT       LGT RAIN  71  59  67 W12G18    30.14F
$$

COZ041-046-047-076>085-087-088-220100-
...PIKES PEAK/PALMER DIVIDE AND SOUTHERN FOOTHILLS...

CITY           SKY/WX    TMP DP  RH WIND       PRES   REMARKS
COLO. SPRINGS  PTSUNNY   81  52  36 N18G29    30.13R THUNDER
A. F. ACADEMY  PTSUNNY   73  51  46 NW18      30.17R
SCHRIEVER AFB  PTSUNNY   79  46  31 N21G38    30.13R
CHEYENNE MTN   PTSUNNY   79  46  31 N21G28    30.15R
ELLICOTT       PTSUNNY    1   1 100 S18G24    30.10R THUNDER WCI -20
FALCON           N/A     73  49  43 NW12G18   30.20R
FORT CARSON    FAIR      82  50  32 N25G32    30.09R
LIMON          FAIR      91  52  26 E10       30.04S
MONUMENT HILL  TSTM      64  46  52 W15G21    30.27R
CANON CITY     MOSUNNY   90  50  25 SW13      30.03R
WALSENBURG     MOCLDY    91  41  17 S12       30.08R
TRINIDAD       FAIR      94  42  16 E9        30.04F
$$

COZ042>045-048>051-090-091-220100-
...NORTHEAST COLORADO...

CITY           SKY/WX    TMP DP  RH WIND       PRES   REMARKS
GREELEY ARPT   FAIR      79  55  43 W12G26    30.10R
AKRON          CLOUDY    92  50  23 NE9       29.98S THUNDER
BURLINGTON     FAIR      97  51  21 SE12      29.94F
WRAY           NOT AVBL
YUMA           FAIR      93  55  27 E8        29.93F
STERLING       FAIR      91  54  27 NE9       29.93S
HOLYOKE        FAIR      99  55  23 E3        29.92S HAZE
FORT MORGAN    PTSUNNY   91  44  19 N21       30.00R
$$

COZ086-089-092>099-220100-
...SOUTHEAST COLORADO...

CITY           SKY/WX    TMP DP  RH WIND       PRES   REMARKS
PUEBLO         FAIR      97  44  16 SE12      29.95S
LA JUNTA       FAIR      98  49  18 E7        29.92F
LAMAR          FAIR      99  50  19 E7        29.87F
SPRINGFIELD      N/A     93  46  19 S10       29.96F
$$




USA.gov is the U.S. government's official web portal to all federal, state and local government web resources and services.